Moffett NAS, CA

3:37 PM PDT on June 28, 2017 (GMT -0700)
Moffett Federal Air Field

Weather History for KNUQ - October, 2011

Change the Weather History Date:

Monday, October 3, 2011

  Actual Average Record
Temperature  
Mean Temperature 63 °F 66 °F  
Max Temperature 72 °F 76 °F 97 °F (1985)
Min Temperature 54 °F 56 °F 43 °F (1950)
Degree Days  
Heating Degree Days 2    
Month to date heating degree days 2  
Since 1 July heating degree days 12  
Cooling Degree Days 0    
Month to date cooling degree days 7  
Year to date cooling degree days 390  
Growing Degree Days 14 (Base 50)    
Moisture  
Dew Point 52 °F    
Average Humidity 64    
Maximum Humidity 90    
Minimum Humidity 38    
Precipitation  
Precipitation 0.29 in 0.01 in 0.29 in (2011)
Month to date precipitation 0.29 0.03  
Year to date precipitation 9.79 9.87  
Since 1 July precipitation 0.29  
Sea Level Pressure  
Sea Level Pressure 29.95 in    
Wind  
Wind Speed 5 mph (SSE)    
Max Wind Speed 12 mph    
Max Gust Speed 18 mph    
Visibility 10 miles    
Events Rain    
T = Trace of Precipitation, MM = Missing Value Source: NWS Daily Summary

Daily Weather History Graph

Daily Weather History Graph

Search for Another Location

Airport or City:

Trip Planner

Search our weather history database for the weather conditions in past years. The results will help you decide how hot, cold, wet, or windy it might be!

Date:

Astronomy

Oct. 03, 2011 Rise Set
Actual Time 7:05 AM PDT 6:48 PM PDT
Civil Twilight 6:39 AM PDT 7:14 PM PDT
Nautical Twilight 6:08 AM PDT 7:44 PM PDT
Astronomical Twilight 5:38 AM PDT 8:15 PM PDT
Moon 2:00 PM PDT (10/3) No Moon Set
Length of Visible Light 12h 35m
Length of Day
11h 43m
Waxing Crescent, 46% of the Moon is Illuminated
Oct 3
Waxing Crescent
Oct 3
First Quarter
Oct 11
Full
Oct 19
Last Quarter
Oct 26
New

Hourly Weather History & Observations

Time (PDT) Temp. Dew Point Humidity Pressure Visibility Wind Dir Wind Speed Gust Speed Precip Events Conditions
12:56 AM 60.1 °F 48.9 °F 67% 30.02 in 10.0 mi Calm Calm - N/A   Clear
1:56 AM 57.0 °F 48.9 °F 74% 30.02 in 10.0 mi Calm Calm - N/A   Clear
2:56 AM 57.0 °F 48.9 °F 74% 30.01 in 10.0 mi Calm Calm - N/A   Clear
3:56 AM 57.0 °F 48.9 °F 74% 30.00 in 10.0 mi Calm Calm - N/A   Clear
4:56 AM 57.0 °F 50.0 °F 77% 29.99 in 10.0 mi Calm Calm - N/A   Clear
5:56 AM 55.9 °F 48.9 °F 77% 29.98 in 10.0 mi SE 4.6 mph - N/A   Clear
6:56 AM 55.9 °F 48.0 °F 75% 29.97 in 10.0 mi SSE 4.6 mph - N/A   Clear
7:56 AM 59.0 °F 50.0 °F 72% 29.96 in 10.0 mi SE 8.1 mph - N/A   Clear
8:56 AM 62.1 °F 50.0 °F 65% 29.97 in 10.0 mi SSE 4.6 mph - N/A   Clear
9:56 AM 66.0 °F 51.1 °F 59% 29.98 in 10.0 mi SE 4.6 mph - N/A   Clear
10:56 AM 69.1 °F 50.0 °F 51% 29.95 in 10.0 mi Variable 4.6 mph - N/A   Clear
11:56 AM 70.0 °F 50.0 °F 49% 29.94 in 10.0 mi NNW 3.5 mph - N/A   Clear
12:56 PM 70.0 °F 48.0 °F 46% 29.93 in 10.0 mi ESE 4.6 mph - N/A   Clear
1:56 PM 72.0 °F 45.0 °F 38% 29.93 in 10.0 mi South 5.8 mph - N/A   Overcast
2:56 PM 68.0 °F 53.1 °F 59% 29.94 in 10.0 mi SW 8.1 mph - 0.00 in Rain Light Rain
3:56 PM 64.0 °F 55.9 °F 75% 29.92 in 6.0 mi SSW 6.9 mph - 0.09 in Rain Light Rain
4:56 PM 63.0 °F 59.0 °F 87% 29.91 in 9.0 mi South 9.2 mph 18.4 mph 0.07 in Rain Light Rain
5:56 PM 63.0 °F 59.0 °F 87% 29.90 in 10.0 mi SE 9.2 mph - 0.04 in Rain Light Rain
6:56 PM 63.0 °F 55.9 °F 78% 29.90 in 10.0 mi SE 8.1 mph - 0.01 in Rain Light Rain
7:56 PM 63.0 °F 57.0 °F 81% 29.90 in 10.0 mi SE 9.2 mph - 0.04 in Rain Light Rain
8:56 PM 63.0 °F 57.0 °F 81% 29.90 in 10.0 mi SSE 9.2 mph - 0.03 in Rain Light Rain
9:56 PM 63.0 °F 57.0 °F 81% 29.90 in 10.0 mi SE 8.1 mph - 0.01 in Rain Light Rain
10:56 PM 63.0 °F 55.9 °F 78% 29.90 in 10.0 mi SSE 5.8 mph - 0.00 in Rain Light Rain
11:56 PM 63.0 °F 57.9 °F 84% 29.90 in 10.0 mi Calm Calm - 0.00 in   Overcast